When you browse on this site, cookies collect data to enhance your experience and personalize the content and advertising you see.
Visit our Privacy Policy to learn more. By continuing to use the site, you agree to this use of cookies and data.
  • Em Portugal
  • Lista de países
  • Para 7 dias
  • Temperatura da água
  • Mapas de satélite
  • Mapa do tempo
  • Widgets de tempo
  • user-avatar
    Iniciar Sessão

    Previsão horária em Zenica

    Hoje, 19 Abril, Sexta-feira

    Tempo Temperatura Precipitação Vento Pressão Humidade
    00:00 +3°C° 0 mm 0 m/s 683 mmHg 94%
    01:00 +2°C° 0 mm 0 m/s 683 mmHg 93%
    02:00 +2°C° 0 mm 0 m/s 683 mmHg 93%
    03:00 +2°C° 0 mm 0 m/s 683 mmHg 93%
    04:00 +2°C° 0 mm 0 m/s 683 mmHg 93%
    05:00 +3°C° 0 mm 0 m/s 683 mmHg 89%
    06:00 +5°C° 0 mm 0 m/s 684 mmHg 85%
    07:00 +8°C° 0 mm 1 m/s 685 mmHg 79%
    08:00 +9°C° 0 mm 1 m/s 685 mmHg 74%
    09:00 +9°C° 0 mm 2 m/s 685 mmHg 68%
    10:00 +12°C° 0 mm 2 m/s 685 mmHg 63%
    11:00 +12°C° 0 mm 2 m/s 685 mmHg 59%
    12:00 +12°C° 0 mm 3 m/s 685 mmHg 56%
    13:00 +13°C° 0 mm 3 m/s 685 mmHg 52%
    14:00 +13°C° 0 mm 3 m/s 685 mmHg 54%
    15:00 +12°C° 0 mm 3 m/s 685 mmHg 56%
    16:00 +12°C° 0 mm 3 m/s 685 mmHg 59%
    17:00 +10°C° 0 mm 3 m/s 684 mmHg 68%
    18:00 +8°C° 0 mm 2 m/s 684 mmHg 77%
    19:00 +8°C° 0 mm 1 m/s 683 mmHg 86%
    20:00 +7°C° 0 mm 1 m/s 683 mmHg 87%
    21:00 +6°C° 0 mm 1 m/s 683 mmHg 88%
    22:00 +5°C° 0 mm 0 m/s 683 mmHg 90%
    23:00 +5°C° 0 mm 0 m/s 683 mmHg 89%

    Amanhã, 20 Abril, Sábado

    Tempo Temperatura Precipitação Vento Pressão Humidade
    00:00 +5°C° 0 mm 0 m/s 683 mmHg 88%
    01:00 +6°C° 0 mm 1 m/s 683 mmHg 87%
    02:00 +5°C° 0 mm 1 m/s 683 mmHg 89%
    03:00 +5°C° 0 mm 1 m/s 683 mmHg 91%
    04:00 +4°C° 0 mm 1 m/s 682 mmHg 93%
    05:00 +5°C° 0 mm 1 m/s 683 mmHg 88%
    06:00 +6°C° 0 mm 1 m/s 683 mmHg 84%
    07:00 +8°C° 0 mm 1 m/s 683 mmHg 80%
    08:00 +8°C° 0 mm 2 m/s 684 mmHg 67%
    09:00 +10°C° 0 mm 3 m/s 684 mmHg 55%
    10:00 +11°C° 0 mm 4 m/s 685 mmHg 42%
    11:00 +11°C° 0 mm 4 m/s 685 mmHg 41%
    12:00 +12°C° 0 mm 4 m/s 684 mmHg 39%
    13:00 +12°C° 0 mm 4 m/s 684 mmHg 37%
    14:00 +12°C° 0 mm 4 m/s 684 mmHg 40%
    15:00 +12°C° 0 mm 3 m/s 684 mmHg 43%
    16:00 +11°C° 0 mm 3 m/s 684 mmHg 46%
    17:00 +9°C° 0 mm 2 m/s 683 mmHg 55%
    18:00 +7°C° 0 mm 2 m/s 683 mmHg 64%
    19:00 +6°C° 0 mm 1 m/s 682 mmHg 73%
    20:00 +6°C° 0 mm 1 m/s 682 mmHg 77%
    21:00 +5°C° 0 mm 1 m/s 682 mmHg 80%
    22:00 +3°C° 0 mm 0 m/s 682 mmHg 83%
    23:00 +3°C° 0 mm 0 m/s 682 mmHg 83%

    Depois de amanhã, 21 Abril, Domingo

    Tempo Temperatura Precipitação Vento Pressão Humidade
    00:00 +2°C° 0 mm 0 m/s 682 mmHg 84%
    01:00 +2°C° 0 mm 0 m/s 681 mmHg 84%
    02:00 +2°C° 0 mm 0 m/s 681 mmHg 84%
    03:00 +1°C° 0 mm 0 m/s 681 mmHg 84%
    04:00 +2°C° 0 mm 1 m/s 680 mmHg 83%
    05:00 +4°C° 0 mm 1 m/s 681 mmHg 75%
    06:00 +6°C° 0 mm 1 m/s 681 mmHg 67%
    07:00 +7°C° 0 mm 1 m/s 682 mmHg 60%
    08:00 +10°C° 0 mm 1 m/s 682 mmHg 50%
    09:00 +13°C° 0 mm 1 m/s 682 mmHg 41%
    10:00 +15°C° 0 mm 1 m/s 683 mmHg 31%
    11:00 +16°C° 0 mm 1 m/s 683 mmHg 29%
    12:00 +17°C° 0 mm 0 m/s 683 mmHg 28%
    13:00 +18°C° 0 mm 0 m/s 683 mmHg 26%
    14:00 +17°C° 0 mm 0 m/s 682 mmHg 27%
    15:00 +18°C° 0 mm 1 m/s 681 mmHg 28%
    16:00 +18°C° 0 mm 1 m/s 681 mmHg 29%
    17:00 +14°C° 0 mm 1 m/s 680 mmHg 39%
    18:00 +11°C° 0 mm 1 m/s 679 mmHg 50%
    19:00 +9°C° 0 mm 1 m/s 679 mmHg 61%
    20:00 +8°C° 0 mm 1 m/s 679 mmHg 67%
    21:00 +7°C° 0 mm 1 m/s 679 mmHg 73%
    22:00 +7°C° 0 mm 1 m/s 679 mmHg 79%
    23:00 +6°C° 0 mm 1 m/s 678 mmHg 82%

    22 Abril, Segunda-feira

    Tempo Temperatura Precipitação Vento Pressão Humidade
    00:00 +6°C° 0 mm 1 m/s 678 mmHg 85%
    01:00 +5°C° 0 mm 2 m/s 678 mmHg 88%
    02:00 +4°C° 0 mm 2 m/s 677 mmHg 88%
    03:00 +4°C° 0 mm 2 m/s 677 mmHg 88%
    04:00 +4°C° 0 mm 2 m/s 677 mmHg 88%
    05:00 +5°C° 0 mm 2 m/s 677 mmHg 83%
    06:00 +6°C° 0 mm 2 m/s 677 mmHg 78%
    07:00 +8°C° 0 mm 2 m/s 677 mmHg 73%
    08:00 +10°C° 0 mm 2 m/s 677 mmHg 63%
    09:00 +13°C° 0 mm 2 m/s 677 mmHg 54%
    10:00 +14°C° 0 mm 3 m/s 678 mmHg 44%
    11:00 +14°C° 0 mm 3 m/s 677 mmHg 45%
    12:00 +16°C° 0 mm 3 m/s 677 mmHg 46%
    13:00 +15°C° 0 mm 4 m/s 677 mmHg 47%
    14:00 +14°C° 0 mm 4 m/s 676 mmHg 51%
    15:00 +13°C° 0 mm 3 m/s 676 mmHg 55%
    16:00 +13°C° 0 mm 3 m/s 675 mmHg 59%
    17:00 +11°C° 0 mm 3 m/s 674 mmHg 63%
    18:00 +10°C° 0 mm 2 m/s 674 mmHg 68%
    19:00 +8°C° 0 mm 2 m/s 673 mmHg 72%
    20:00 +8°C° 0 mm 2 m/s 673 mmHg 75%
    21:00 +8°C° 0 mm 3 m/s 673 mmHg 78%
    22:00 +7°C° 0 mm 3 m/s 673 mmHg 81%
    23:00 +7°C° 0.3 mm 3 m/s 673 mmHg 84%

    23 Abril, Terça-feira

    Tempo Temperatura Precipitação Vento Pressão Humidade
    00:00 +7°C° 0.3 mm 3 m/s 673 mmHg 87%
    01:00 +7°C° 0.3 mm 2 m/s 672 mmHg 90%
    02:00 +7°C° 0.1 mm 3 m/s 672 mmHg 90%
    03:00 +7°C° 0.1 mm 3 m/s 672 mmHg 91%
    04:00 +7°C° 0.1 mm 3 m/s 672 mmHg 91%
    05:00 +8°C° 0.2 mm 3 m/s 672 mmHg 90%
    06:00 +8°C° 0.2 mm 3 m/s 672 mmHg 89%
    07:00 +9°C° 0.2 mm 3 m/s 672 mmHg 89%
    08:00 +8°C° 0.2 mm 4 m/s 672 mmHg 87%
    09:00 +8°C° 0.2 mm 4 m/s 672 mmHg 86%
    10:00 +8°C° 0.2 mm 4 m/s 672 mmHg 84%
    11:00 +8°C° 0.3 mm 4 m/s 672 mmHg 85%
    12:00 +10°C° 0.3 mm 4 m/s 672 mmHg 86%
    13:00 +10°C° 0.3 mm 4 m/s 673 mmHg 86%
    14:00 +10°C° 0.2 mm 4 m/s 673 mmHg 85%
    15:00 +10°C° 0.2 mm 4 m/s 673 mmHg 84%
    16:00 +10°C° 0.2 mm 4 m/s 673 mmHg 83%
    17:00 +10°C° 0.1 mm 4 m/s 673 mmHg 86%
    18:00 +9°C° 0.1 mm 3 m/s 673 mmHg 88%
    19:00 +9°C° 0.1 mm 3 m/s 673 mmHg 90%
    20:00 +9°C° 0.1 mm 3 m/s 674 mmHg 91%
    21:00 +9°C° 0.1 mm 3 m/s 674 mmHg 91%
    22:00 +9°C° 0.1 mm 3 m/s 674 mmHg 92%
    23:00 +9°C° 0 mm 3 m/s 675 mmHg 93%

    24 Abril, Quarta-feira

    Tempo Temperatura Precipitação Vento Pressão Humidade
    00:00 +9°C° 0 mm 3 m/s 675 mmHg 93%
    01:00 +9°C° 0 mm 3 m/s 675 mmHg 94%
    02:00 +9°C° 0 mm 2 m/s 675 mmHg 95%
    03:00 +9°C° 0 mm 2 m/s 675 mmHg 95%
    04:00 +8°C° 0 mm 2 m/s 676 mmHg 95%
    05:00 +9°C° 0.1 mm 2 m/s 676 mmHg 93%
    06:00 +9°C° 0.1 mm 2 m/s 676 mmHg 92%
    07:00 +10°C° 0.1 mm 2 m/s 677 mmHg 90%
    08:00 +11°C° 0 mm 3 m/s 678 mmHg 83%
    09:00 +13°C° 0 mm 3 m/s 678 mmHg 77%
    10:00 +14°C° 0 mm 4 m/s 679 mmHg 70%
    11:00 +15°C° 0 mm 4 m/s 679 mmHg 65%
    12:00 +17°C° 0 mm 4 m/s 679 mmHg 61%
    13:00 +18°C° 0 mm 4 m/s 679 mmHg 56%
    14:00 +18°C° 0 mm 4 m/s 679 mmHg 57%
    15:00 +18°C° 0 mm 3 m/s 679 mmHg 57%
    16:00 +18°C° 0 mm 3 m/s 679 mmHg 58%
    17:00 +16°C° 0 mm 3 m/s 678 mmHg 67%
    18:00 +14°C° 0 mm 2 m/s 678 mmHg 77%
    19:00 +12°C° 0 mm 2 m/s 677 mmHg 86%
    20:00 +10°C° 0 mm 2 m/s 677 mmHg 88%
    21:00 +9°C° 0 mm 2 m/s 677 mmHg 90%
    22:00 +8°C° 0 mm 2 m/s 677 mmHg 92%
    23:00 +8°C° 0 mm 2 m/s 677 mmHg 90%
    Mostrar mais